Torna al catalogo

STARLINK-5193

AttivoComunicazioniVLEO
NORAD 54095·PAYLOAD·🇺🇸 United States

Lanciato Oct 20, 2022 da Cape Canaveral Space Force Station

Loading…

Prossimi Passaggi (prossime 24 ore)

TLE

AggiornatoSource: CelesTrak SupGP

Epoca: Sep 14, 2026, 21:26 UTC

1 54095C 22136AW  26257.89354167  .00542220  00000+0  29595-1 0  2574
2 54095  53.1594 203.7323 0001482  94.0815 241.2858 15.13569251    13

Traccia STARLINK-5193 in tempo reale con AllMySat

Download on the App Store